Year,Month,Day,Hour,Minute,Value (Times are PST for temperature in C)
2011,08,21,00,00,16.90
2011,08,21,00,01,16.90
2011,08,21,00,02,16.80
2011,08,21,00,03,16.80
2011,08,21,00,04,16.80
2011,08,21,00,05,16.90
2011,08,21,00,06,16.90
2011,08,21,00,07,16.90
2011,08,21,00,08,16.90
2011,08,21,00,09,16.90
2011,08,21,00,10,16.90
2011,08,21,00,11,16.90
2011,08,21,00,12,16.90
2011,08,21,00,13,16.90
2011,08,21,00,14,17.00
2011,08,21,00,15,17.00
2011,08,21,00,16,17.00
2011,08,21,00,17,17.00
2011,08,21,00,18,17.00
2011,08,21,00,19,17.00
2011,08,21,00,20,17.00
2011,08,21,00,21,17.00
2011,08,21,00,22,16.90
2011,08,21,00,23,16.90
2011,08,21,00,24,16.90
2011,08,21,00,25,16.90
2011,08,21,00,26,16.90
2011,08,21,00,27,16.80
2011,08,21,00,28,16.80
2011,08,21,00,29,16.80
2011,08,21,00,30,16.80
2011,08,21,00,31,16.80
2011,08,21,00,32,16.80
2011,08,21,00,33,16.80
2011,08,21,00,34,16.70
2011,08,21,00,35,16.70
2011,08,21,00,36,16.70
2011,08,21,00,37,16.70
2011,08,21,00,38,16.70
2011,08,21,00,39,16.70
2011,08,21,00,40,16.70
2011,08,21,00,41,16.60
2011,08,21,00,42,16.60
2011,08,21,00,43,16.60
2011,08,21,00,44,16.60
2011,08,21,00,45,16.60
2011,08,21,00,46,16.60
2011,08,21,00,47,16.60
2011,08,21,00,48,16.60
2011,08,21,00,49,16.60
2011,08,21,00,50,16.60
2011,08,21,00,51,16.60
2011,08,21,00,52,16.50
2011,08,21,00,53,16.50
2011,08,21,00,54,16.50
2011,08,21,00,55,16.50
2011,08,21,00,56,16.40
2011,08,21,00,57,16.40
2011,08,21,00,58,16.40
2011,08,21,00,59,16.40
2011,08,21,01,00,16.40
2011,08,21,01,01,16.40
2011,08,21,01,02,16.40
2011,08,21,01,03,16.40
2011,08,21,01,04,16.40
2011,08,21,01,05,16.40
2011,08,21,01,06,16.40
2011,08,21,01,07,16.40
2011,08,21,01,08,16.40
2011,08,21,01,09,16.40
2011,08,21,01,10,16.40
2011,08,21,01,11,16.40
2011,08,21,01,12,16.40
2011,08,21,01,13,16.40
2011,08,21,01,14,16.40
2011,08,21,01,15,16.30
2011,08,21,01,16,16.30
2011,08,21,01,17,16.30
2011,08,21,01,18,16.30
2011,08,21,01,19,16.30
2011,08,21,01,20,16.20
2011,08,21,01,21,16.20
2011,08,21,01,22,16.20
2011,08,21,01,23,16.20
2011,08,21,01,24,16.20
2011,08,21,01,25,16.20
2011,08,21,01,26,16.20
2011,08,21,01,27,16.20
2011,08,21,01,28,16.20
2011,08,21,01,29,16.20
2011,08,21,01,30,16.20
2011,08,21,01,31,16.20
2011,08,21,01,32,16.20
2011,08,21,01,33,16.20
2011,08,21,01,34,16.20
2011,08,21,01,35,16.20
2011,08,21,01,36,16.20
2011,08,21,01,37,16.30
2011,08,21,01,38,16.20
2011,08,21,01,39,16.30
2011,08,21,01,40,16.30
2011,08,21,01,41,16.30
2011,08,21,01,42,16.30
2011,08,21,01,43,16.30
2011,08,21,01,44,16.30
2011,08,21,01,45,16.30
2011,08,21,01,46,16.30
2011,08,21,01,47,16.30
2011,08,21,01,48,16.40
2011,08,21,01,49,16.40
2011,08,21,01,50,16.40
2011,08,21,01,51,16.40
2011,08,21,01,52,16.40
2011,08,21,01,53,16.40
2011,08,21,01,54,16.40
2011,08,21,01,55,16.40
2011,08,21,01,56,16.40
2011,08,21,01,57,16.40
2011,08,21,01,58,16.40
2011,08,21,01,59,16.40
2011,08,21,02,00,16.40
2011,08,21,02,01,16.40
2011,08,21,02,02,16.40
2011,08,21,02,03,16.40
2011,08,21,02,04,16.40
2011,08,21,02,05,16.40
2011,08,21,02,06,16.40
2011,08,21,02,07,16.40
2011,08,21,02,08,16.40
2011,08,21,02,09,16.30
2011,08,21,02,10,16.30
2011,08,21,02,11,16.30
2011,08,21,02,12,16.30
2011,08,21,02,13,16.30
2011,08,21,02,14,16.30
2011,08,21,02,15,16.30
2011,08,21,02,16,16.30
2011,08,21,02,17,16.30
2011,08,21,02,18,16.30
2011,08,21,02,19,16.40
2011,08,21,02,20,16.40
2011,08,21,02,21,16.50
2011,08,21,02,22,16.50
2011,08,21,02,23,16.60
2011,08,21,02,24,16.60
2011,08,21,02,25,16.60
2011,08,21,02,26,16.70
2011,08,21,02,27,16.70
2011,08,21,02,28,16.70
2011,08,21,02,29,16.70
2011,08,21,02,30,16.80
2011,08,21,02,31,16.80
2011,08,21,02,32,16.80
2011,08,21,02,33,16.90
2011,08,21,02,34,17.00
2011,08,21,02,35,17.10
2011,08,21,02,36,17.20
2011,08,21,02,37,17.30
2011,08,21,02,38,17.30
2011,08,21,02,39,17.30
2011,08,21,02,40,17.30
2011,08,21,02,41,17.20
2011,08,21,02,42,17.20
2011,08,21,02,43,17.20
2011,08,21,02,44,17.10
2011,08,21,02,45,17.10
2011,08,21,02,46,17.00
2011,08,21,02,47,17.00
2011,08,21,02,48,16.90
2011,08,21,02,49,16.80
2011,08,21,02,50,16.70
2011,08,21,02,51,16.60
2011,08,21,02,52,16.40
2011,08,21,02,53,16.30
2011,08,21,02,54,16.20
2011,08,21,02,55,16.10
2011,08,21,02,56,16.00
2011,08,21,02,57,15.90
2011,08,21,02,58,15.80
2011,08,21,02,59,15.80
2011,08,21,03,00,15.70
2011,08,21,03,01,15.60
2011,08,21,03,02,15.60
2011,08,21,03,03,15.50
2011,08,21,03,04,15.50
2011,08,21,03,05,15.40
2011,08,21,03,06,15.40
2011,08,21,03,07,15.30
2011,08,21,03,08,15.20
2011,08,21,03,09,15.10
2011,08,21,03,10,15.00
2011,08,21,03,11,15.00
2011,08,21,03,12,14.90
2011,08,21,03,13,14.90
2011,08,21,03,14,14.80
2011,08,21,03,15,14.80
2011,08,21,03,16,14.80
2011,08,21,03,17,14.70
2011,08,21,03,18,14.70
2011,08,21,03,19,14.70
2011,08,21,03,20,14.70
2011,08,21,03,21,14.70
2011,08,21,03,22,14.60
2011,08,21,03,23,14.60
2011,08,21,03,24,14.60
2011,08,21,03,25,14.50
2011,08,21,03,26,14.50
2011,08,21,03,27,14.50
2011,08,21,03,28,14.40
2011,08,21,03,29,14.40
2011,08,21,03,30,14.30
2011,08,21,03,31,14.30
2011,08,21,03,32,14.30
2011,08,21,03,33,14.30
2011,08,21,03,34,14.30
2011,08,21,03,35,14.30
2011,08,21,03,36,14.20
2011,08,21,03,37,14.20
2011,08,21,03,38,14.20
2011,08,21,03,39,14.20
2011,08,21,03,40,14.20
2011,08,21,03,41,14.20
2011,08,21,03,42,14.20
2011,08,21,03,43,14.20
2011,08,21,03,44,14.30
2011,08,21,03,45,14.30
2011,08,21,03,46,14.30
2011,08,21,03,47,14.30
2011,08,21,03,48,14.20
2011,08,21,03,49,14.20
2011,08,21,03,50,14.20
2011,08,21,03,51,14.20
2011,08,21,03,52,14.20
2011,08,21,03,53,14.30
2011,08,21,03,54,14.30
2011,08,21,03,55,14.30
2011,08,21,03,56,14.30
2011,08,21,03,57,14.30
2011,08,21,03,58,14.30
2011,08,21,03,59,14.30
2011,08,21,04,00,14.30
2011,08,21,04,01,14.30
2011,08,21,04,02,14.30
2011,08,21,04,03,14.30
2011,08,21,04,04,14.30
2011,08,21,04,05,14.30
2011,08,21,04,06,14.30
2011,08,21,04,07,14.30
2011,08,21,04,08,14.30
2011,08,21,04,09,14.30
2011,08,21,04,10,14.30
2011,08,21,04,11,14.30
2011,08,21,04,12,14.30
2011,08,21,04,13,14.30
2011,08,21,04,14,14.40
2011,08,21,04,15,14.40
2011,08,21,04,16,14.40
2011,08,21,04,17,14.40
2011,08,21,04,18,14.40
2011,08,21,04,19,14.40
2011,08,21,04,20,14.40
2011,08,21,04,21,14.50
2011,08,21,04,22,14.50
2011,08,21,04,23,14.50
2011,08,21,04,24,14.60
2011,08,21,04,25,14.60
2011,08,21,04,26,14.60
2011,08,21,04,27,14.60
2011,08,21,04,28,14.60
2011,08,21,04,29,14.60
2011,08,21,04,30,14.60
2011,08,21,04,31,14.60
2011,08,21,04,32,14.60
2011,08,21,04,33,14.70
2011,08,21,04,34,14.70
2011,08,21,04,35,14.70
2011,08,21,04,36,14.70
2011,08,21,04,37,14.70
2011,08,21,04,38,14.70
2011,08,21,04,39,14.70
2011,08,21,04,40,14.70
2011,08,21,04,41,14.60
2011,08,21,04,42,14.60
2011,08,21,04,43,14.50
2011,08,21,04,44,14.50
2011,08,21,04,45,14.40
2011,08,21,04,46,14.40
2011,08,21,04,47,14.30
2011,08,21,04,48,14.30
2011,08,21,04,49,14.20
2011,08,21,04,50,14.20
2011,08,21,04,51,14.10
2011,08,21,04,52,14.10
2011,08,21,04,53,14.00
2011,08,21,04,54,13.90
2011,08,21,04,55,13.90
2011,08,21,04,56,13.90
2011,08,21,04,57,13.80
2011,08,21,04,58,13.80
2011,08,21,04,59,13.80
2011,08,21,05,00,13.80
2011,08,21,05,01,13.70
2011,08,21,05,02,13.70
2011,08,21,05,03,13.70
2011,08,21,05,04,13.70
2011,08,21,05,05,13.60
2011,08,21,05,06,13.60
2011,08,21,05,07,13.60
2011,08,21,05,08,13.60
2011,08,21,05,09,13.60
2011,08,21,05,10,13.50
2011,08,21,05,11,13.50
2011,08,21,05,12,13.50
2011,08,21,05,13,13.50
2011,08,21,05,14,13.50
2011,08,21,05,15,13.50
2011,08,21,05,16,13.40
2011,08,21,05,17,13.40
2011,08,21,05,18,13.40
2011,08,21,05,19,13.40
2011,08,21,05,20,13.40
2011,08,21,05,21,13.40
2011,08,21,05,22,13.40
2011,08,21,05,23,13.40
2011,08,21,05,24,13.40
2011,08,21,05,25,13.50
2011,08,21,05,26,13.50
2011,08,21,05,27,13.50
2011,08,21,05,28,13.50
2011,08,21,05,29,13.50
2011,08,21,05,30,13.50
2011,08,21,05,31,13.50
2011,08,21,05,32,13.50
2011,08,21,05,33,13.50
2011,08,21,05,34,13.50
2011,08,21,05,35,13.50
2011,08,21,05,36,13.60
2011,08,21,05,37,13.60
2011,08,21,05,38,13.50
2011,08,21,05,39,13.50
2011,08,21,05,40,13.50
2011,08,21,05,41,13.50
2011,08,21,05,42,13.50
2011,08,21,05,43,13.40
2011,08,21,05,44,13.40
2011,08,21,05,45,13.40
2011,08,21,05,46,13.40
2011,08,21,05,47,13.30
2011,08,21,05,48,13.30
2011,08,21,05,49,13.30
2011,08,21,05,50,13.30
2011,08,21,05,51,13.30
2011,08,21,05,52,13.30
2011,08,21,05,53,13.30
2011,08,21,05,54,13.30
2011,08,21,05,55,13.20
2011,08,21,05,56,13.30
2011,08,21,05,57,13.20
2011,08,21,05,58,13.30
2011,08,21,05,59,13.30
2011,08,21,06,00,13.30
2011,08,21,06,01,13.30
2011,08,21,06,02,13.30
2011,08,21,06,03,13.30
2011,08,21,06,04,13.30
2011,08,21,06,05,13.30
2011,08,21,06,06,13.30
2011,08,21,06,07,13.30
2011,08,21,06,08,13.30
2011,08,21,06,09,13.30
2011,08,21,06,10,13.30
2011,08,21,06,11,13.30
2011,08,21,06,12,13.30
2011,08,21,06,13,13.30
2011,08,21,06,14,13.30
2011,08,21,06,15,13.40
2011,08,21,06,16,13.40
2011,08,21,06,17,13.40
2011,08,21,06,18,13.40
2011,08,21,06,19,13.40
2011,08,21,06,20,13.40
2011,08,21,06,21,13.40
2011,08,21,06,22,13.40
2011,08,21,06,23,13.40
2011,08,21,06,24,13.40
2011,08,21,06,25,13.40
2011,08,21,06,26,13.40
2011,08,21,06,27,13.40
2011,08,21,06,28,13.40
2011,08,21,06,29,13.40
2011,08,21,06,30,13.40
2011,08,21,06,31,13.40
2011,08,21,06,32,13.40
2011,08,21,06,33,13.40
2011,08,21,06,34,13.40
2011,08,21,06,35,13.40
2011,08,21,06,36,13.40
2011,08,21,06,37,13.40
2011,08,21,06,38,13.40
2011,08,21,06,39,13.30
2011,08,21,06,40,13.30
2011,08,21,06,41,13.30
2011,08,21,06,42,13.30
2011,08,21,06,43,13.30
2011,08,21,06,44,13.30
2011,08,21,06,45,13.30
2011,08,21,06,46,13.30
2011,08,21,06,47,13.30
2011,08,21,06,48,13.30
2011,08,21,06,49,13.30
2011,08,21,06,50,13.30
2011,08,21,06,51,13.40
2011,08,21,06,52,13.40
2011,08,21,06,53,13.40
2011,08,21,06,54,13.40
2011,08,21,06,55,13.40
2011,08,21,06,56,13.40
2011,08,21,06,57,13.50
2011,08,21,06,58,13.50
2011,08,21,06,59,13.50
2011,08,21,07,00,13.50
2011,08,21,07,01,13.60
2011,08,21,07,02,13.60
2011,08,21,07,03,13.60
2011,08,21,07,04,13.60
2011,08,21,07,05,13.70
2011,08,21,07,06,13.70
2011,08,21,07,07,13.70
2011,08,21,07,08,13.70
2011,08,21,07,09,13.80
2011,08,21,07,10,13.80
2011,08,21,07,11,13.80
2011,08,21,07,12,13.80
2011,08,21,07,13,13.80
2011,08,21,07,14,13.90
2011,08,21,07,15,13.90
2011,08,21,07,16,13.90
2011,08,21,07,17,13.90
2011,08,21,07,18,13.90
2011,08,21,07,19,13.90
2011,08,21,07,20,13.90
2011,08,21,07,21,13.90
2011,08,21,07,22,14.00
2011,08,21,07,23,14.00
2011,08,21,07,24,14.00
2011,08,21,07,25,14.10
2011,08,21,07,26,14.10
2011,08,21,07,27,14.20
2011,08,21,07,28,14.20
2011,08,21,07,29,14.20
2011,08,21,07,30,14.30
2011,08,21,07,31,14.30
2011,08,21,07,32,14.30
2011,08,21,07,33,14.40
2011,08,21,07,34,14.40
2011,08,21,07,35,14.50
2011,08,21,07,36,14.50
2011,08,21,07,37,14.60
2011,08,21,07,38,14.60
2011,08,21,07,39,14.60
2011,08,21,07,40,14.60
2011,08,21,07,41,14.60
2011,08,21,07,42,14.60
2011,08,21,07,43,14.60
2011,08,21,07,44,14.50
2011,08,21,07,45,14.50
2011,08,21,07,46,14.40
2011,08,21,07,47,14.40
2011,08,21,07,48,14.40
2011,08,21,07,49,14.40
2011,08,21,07,50,14.40
2011,08,21,07,51,14.30
2011,08,21,07,52,14.30
2011,08,21,07,53,14.30
2011,08,21,07,54,14.30
2011,08,21,07,55,14.30
2011,08,21,07,56,14.30
2011,08,21,07,57,14.30
2011,08,21,07,58,14.30
2011,08,21,07,59,14.30
2011,08,21,08,00,14.30
2011,08,21,08,01,14.30
2011,08,21,08,02,14.30
2011,08,21,08,03,14.30
2011,08,21,08,04,14.40
2011,08,21,08,05,14.40
2011,08,21,08,06,14.40
2011,08,21,08,07,14.40
2011,08,21,08,08,14.40
2011,08,21,08,09,14.40
2011,08,21,08,10,14.40
2011,08,21,08,11,14.40
2011,08,21,08,12,14.40
2011,08,21,08,13,14.50
2011,08,21,08,14,14.50
2011,08,21,08,15,14.50
2011,08,21,08,16,14.60
2011,08,21,08,17,14.60
2011,08,21,08,18,14.60
2011,08,21,08,19,14.70
2011,08,21,08,20,14.70
2011,08,21,08,21,14.70
2011,08,21,08,22,14.80
2011,08,21,08,23,14.80
2011,08,21,08,24,14.80
2011,08,21,08,25,14.80
2011,08,21,08,26,14.80
2011,08,21,08,27,14.80
2011,08,21,08,28,14.80
2011,08,21,08,29,14.80
2011,08,21,08,30,14.90
2011,08,21,08,31,14.90
2011,08,21,08,32,15.00
2011,08,21,08,33,15.00
2011,08,21,08,34,15.00
2011,08,21,08,35,15.10
2011,08,21,08,36,15.10
2011,08,21,08,37,15.10
2011,08,21,08,38,15.10
2011,08,21,08,39,15.20
2011,08,21,08,40,15.20
2011,08,21,08,41,15.30
2011,08,21,08,42,15.30
2011,08,21,08,43,15.30
2011,08,21,08,44,15.40
2011,08,21,08,45,15.40
2011,08,21,08,46,15.50
2011,08,21,08,47,15.50
2011,08,21,08,48,15.60
2011,08,21,08,49,15.60
2011,08,21,08,50,15.70
2011,08,21,08,51,15.80
2011,08,21,08,52,15.80
2011,08,21,08,53,15.90
2011,08,21,08,54,16.00
2011,08,21,08,55,16.00
2011,08,21,08,56,16.10
2011,08,21,08,57,16.10
2011,08,21,08,58,16.20
2011,08,21,08,59,16.20
2011,08,21,09,00,16.20
2011,08,21,09,01,16.20
2011,08,21,09,02,16.20
2011,08,21,09,03,16.30
2011,08,21,09,04,16.30
2011,08,21,09,05,16.40
2011,08,21,09,06,16.40
2011,08,21,09,07,16.50
2011,08,21,09,08,16.60
2011,08,21,09,09,16.70
2011,08,21,09,10,16.80
2011,08,21,09,11,16.80
2011,08,21,09,12,16.90
2011,08,21,09,13,17.00
2011,08,21,09,14,17.10
2011,08,21,09,15,17.10
2011,08,21,09,16,17.20
2011,08,21,09,17,17.30
2011,08,21,09,18,17.40
2011,08,21,09,19,17.50
2011,08,21,09,20,17.60
2011,08,21,09,21,17.70
2011,08,21,09,22,17.90
2011,08,21,09,23,18.00
2011,08,21,09,24,18.10
2011,08,21,09,25,18.20
2011,08,21,09,26,18.30
2011,08,21,09,27,18.40
2011,08,21,09,28,18.40
2011,08,21,09,29,18.60
2011,08,21,09,30,18.70
2011,08,21,09,31,18.80
2011,08,21,09,32,18.90
2011,08,21,09,33,19.10
2011,08,21,09,34,19.20
2011,08,21,09,35,19.40
2011,08,21,09,36,19.50
2011,08,21,09,37,19.60
2011,08,21,09,38,19.70
2011,08,21,09,39,19.70
2011,08,21,09,40,19.80
2011,08,21,09,41,19.80
2011,08,21,09,42,19.80
2011,08,21,09,43,19.80
2011,08,21,09,44,19.80
2011,08,21,09,45,19.80
2011,08,21,09,46,19.80
2011,08,21,09,47,19.80
2011,08,21,09,48,19.70
2011,08,21,09,49,19.60
2011,08,21,09,50,19.60
2011,08,21,09,51,19.50
2011,08,21,09,52,19.40
2011,08,21,09,53,19.50
2011,08,21,09,54,19.50
2011,08,21,09,55,19.50
2011,08,21,09,56,19.60
2011,08,21,09,57,19.70
2011,08,21,09,58,19.70
2011,08,21,09,59,19.80
2011,08,21,10,00,19.70
2011,08,21,10,01,19.60
2011,08,21,10,02,19.40
2011,08,21,10,03,19.30
2011,08,21,10,04,19.20
2011,08,21,10,05,19.10
2011,08,21,10,06,19.00
2011,08,21,10,07,18.90
2011,08,21,10,08,18.80
2011,08,21,10,09,18.80
2011,08,21,10,10,18.70
2011,08,21,10,11,18.80
2011,08,21,10,12,18.80
2011,08,21,10,13,18.80
2011,08,21,10,14,18.90
2011,08,21,10,15,18.90
2011,08,21,10,16,18.90
2011,08,21,10,17,19.00
2011,08,21,10,18,19.00
2011,08,21,10,19,19.00
2011,08,21,10,20,19.00
2011,08,21,10,21,19.00
2011,08,21,10,22,19.00
2011,08,21,10,23,19.00
2011,08,21,10,24,18.90
2011,08,21,10,25,18.90
2011,08,21,10,26,19.00
2011,08,21,10,27,19.00
2011,08,21,10,28,19.10
2011,08,21,10,29,19.10
2011,08,21,10,30,19.10
2011,08,21,10,31,19.20
2011,08,21,10,32,19.20
2011,08,21,10,33,19.20
2011,08,21,10,34,19.30
2011,08,21,10,35,19.30
2011,08,21,10,36,19.40
2011,08,21,10,37,19.50
2011,08,21,10,38,19.60
2011,08,21,10,39,19.70
2011,08,21,10,40,19.90
2011,08,21,10,41,20.00
2011,08,21,10,42,20.10
2011,08,21,10,43,20.30
2011,08,21,10,44,20.40
2011,08,21,10,45,20.50
2011,08,21,10,46,20.70
2011,08,21,10,47,20.80
2011,08,21,10,48,20.80
2011,08,21,10,49,20.80
2011,08,21,10,50,20.70
2011,08,21,10,51,20.70
2011,08,21,10,52,20.60
2011,08,21,10,53,20.60
2011,08,21,10,54,20.60
2011,08,21,10,55,20.60
2011,08,21,10,56,20.70
2011,08,21,10,57,20.80
2011,08,21,10,58,20.90
2011,08,21,10,59,20.90
2011,08,21,11,00,20.80
2011,08,21,11,01,20.70
2011,08,21,11,02,20.60
2011,08,21,11,03,20.50
2011,08,21,11,04,20.40
2011,08,21,11,05,20.40
2011,08,21,11,06,20.30
2011,08,21,11,07,20.40
2011,08,21,11,08,20.40
2011,08,21,11,09,20.40
2011,08,21,11,10,20.40
2011,08,21,11,11,20.40
2011,08,21,11,12,20.40
2011,08,21,11,13,20.40
2011,08,21,11,14,20.40
2011,08,21,11,15,20.40
2011,08,21,11,16,20.50
2011,08,21,11,17,20.50
2011,08,21,11,18,20.60
2011,08,21,11,19,20.70
2011,08,21,11,20,20.90
2011,08,21,11,21,21.00
2011,08,21,11,22,21.20
2011,08,21,11,23,21.40
2011,08,21,11,24,21.60
2011,08,21,11,25,21.70
2011,08,21,11,26,21.90
2011,08,21,11,27,22.10
2011,08,21,11,28,22.30
2011,08,21,11,29,22.30
2011,08,21,11,30,22.40
2011,08,21,11,31,22.40
2011,08,21,11,32,22.50
2011,08,21,11,33,22.50
2011,08,21,11,34,22.60
2011,08,21,11,35,22.60
2011,08,21,11,36,22.70
2011,08,21,11,37,22.80
2011,08,21,11,38,23.00
2011,08,21,11,39,23.00
2011,08,21,11,40,22.90
2011,08,21,11,41,22.70
2011,08,21,11,42,22.50
2011,08,21,11,43,22.40
2011,08,21,11,44,22.40
2011,08,21,11,45,22.30
2011,08,21,11,46,22.10
2011,08,21,11,47,21.80
2011,08,21,11,48,21.70
2011,08,21,11,49,21.60
2011,08,21,11,50,21.60
2011,08,21,11,51,21.60
2011,08,21,11,52,21.70
2011,08,21,11,53,21.60
2011,08,21,11,54,21.50
2011,08,21,11,55,21.50
2011,08,21,11,56,21.30
2011,08,21,11,57,21.20
2011,08,21,11,58,21.10
2011,08,21,11,59,21.00
2011,08,21,12,00,20.80
2011,08,21,12,01,20.60
2011,08,21,12,02,20.40
2011,08,21,12,03,20.20
2011,08,21,12,04,20.00
2011,08,21,12,05,19.90
2011,08,21,12,06,19.90
2011,08,21,12,07,19.90
2011,08,21,12,08,19.80
2011,08,21,12,09,19.80
2011,08,21,12,10,19.80
2011,08,21,12,11,19.90
2011,08,21,12,12,19.90
2011,08,21,12,13,20.00
2011,08,21,12,14,20.10
2011,08,21,12,15,20.20
2011,08,21,12,16,20.20
2011,08,21,12,17,20.10
2011,08,21,12,18,20.10
2011,08,21,12,19,20.10
2011,08,21,12,20,20.10
2011,08,21,12,21,20.20
2011,08,21,12,22,20.20
2011,08,21,12,23,20.30
2011,08,21,12,24,20.50
2011,08,21,12,25,20.70
2011,08,21,12,26,20.80
2011,08,21,12,27,21.00
2011,08,21,12,28,21.00
2011,08,21,12,29,20.90
2011,08,21,12,30,20.80
2011,08,21,12,31,20.80
2011,08,21,12,32,20.80
2011,08,21,12,33,20.80
2011,08,21,12,34,20.90
2011,08,21,12,35,20.90
2011,08,21,12,36,20.90
2011,08,21,12,37,21.00
2011,08,21,12,38,21.10
2011,08,21,12,39,21.10
2011,08,21,12,40,21.10
2011,08,21,12,41,21.10
2011,08,21,12,42,21.10
2011,08,21,12,43,21.10
2011,08,21,12,44,21.20
2011,08,21,12,45,21.30
2011,08,21,12,46,21.40
2011,08,21,12,47,21.40
2011,08,21,12,48,21.30
2011,08,21,12,49,21.20
2011,08,21,12,50,21.20
2011,08,21,12,51,21.20
2011,08,21,12,52,21.40
2011,08,21,12,53,21.60
2011,08,21,12,54,21.70
2011,08,21,12,55,21.80
2011,08,21,12,56,22.00
2011,08,21,12,57,22.20
2011,08,21,12,58,22.40
2011,08,21,12,59,22.60
2011,08,21,13,00,22.70
2011,08,21,13,01,22.80
2011,08,21,13,02,22.90
2011,08,21,13,03,23.00
2011,08,21,13,04,23.10
2011,08,21,13,05,23.30
2011,08,21,13,06,23.40
2011,08,21,13,07,23.60
2011,08,21,13,08,23.70
2011,08,21,13,09,23.90
2011,08,21,13,10,24.10
2011,08,21,13,11,24.40
2011,08,21,13,12,24.70
2011,08,21,13,13,24.80
2011,08,21,13,14,25.00
2011,08,21,13,15,25.20
2011,08,21,13,16,25.20
2011,08,21,13,17,25.20
2011,08,21,13,18,25.20
2011,08,21,13,19,25.20
2011,08,21,13,20,25.20
2011,08,21,13,21,25.20
2011,08,21,13,22,25.20
2011,08,21,13,23,25.20
2011,08,21,13,24,25.20
2011,08,21,13,25,25.30
2011,08,21,13,26,25.30
2011,08,21,13,27,25.40
2011,08,21,13,28,25.50
2011,08,21,13,29,25.60
2011,08,21,13,30,25.70
2011,08,21,13,31,26.00
2011,08,21,13,32,26.20
2011,08,21,13,33,26.40
2011,08,21,13,34,26.70
2011,08,21,13,35,26.90
2011,08,21,13,36,27.10
2011,08,21,13,37,27.30
2011,08,21,13,38,27.50
2011,08,21,13,39,27.70
2011,08,21,13,40,27.80
2011,08,21,13,41,27.90
2011,08,21,13,42,27.90
2011,08,21,13,43,27.90
2011,08,21,13,44,27.80
2011,08,21,13,45,27.80
2011,08,21,13,46,27.80
2011,08,21,13,47,27.90
2011,08,21,13,48,27.90
2011,08,21,13,49,27.90
2011,08,21,13,50,27.80
2011,08,21,13,51,27.80
2011,08,21,13,52,27.70
2011,08,21,13,53,27.70
2011,08,21,13,54,27.70
2011,08,21,13,55,27.60
2011,08,21,13,56,27.70
2011,08,21,13,57,27.70
2011,08,21,13,58,27.70
2011,08,21,13,59,27.60
2011,08,21,14,00,27.50
2011,08,21,14,01,27.50
2011,08,21,14,02,27.40
2011,08,21,14,03,27.30
2011,08,21,14,04,27.30
2011,08,21,14,05,27.30
2011,08,21,14,06,27.20
2011,08,21,14,07,27.20
2011,08,21,14,08,27.20
2011,08,21,14,09,27.10
2011,08,21,14,10,27.10
2011,08,21,14,11,27.20
2011,08,21,14,12,27.20
2011,08,21,14,13,27.10
2011,08,21,14,14,27.10
2011,08,21,14,15,27.20
2011,08,21,14,16,27.20
2011,08,21,14,17,27.30
2011,08,21,14,18,27.30
2011,08,21,14,19,27.30
2011,08,21,14,20,27.30
2011,08,21,14,21,27.40
2011,08,21,14,22,27.30
2011,08,21,14,23,27.30
2011,08,21,14,24,27.30
2011,08,21,14,25,27.40
2011,08,21,14,26,27.50
2011,08,21,14,27,27.60
2011,08,21,14,28,27.50
2011,08,21,14,29,27.40
2011,08,21,14,30,27.40
2011,08,21,14,31,27.40
2011,08,21,14,32,27.40
2011,08,21,14,33,27.30
2011,08,21,14,34,27.30
2011,08,21,14,35,27.20
2011,08,21,14,36,27.20
2011,08,21,14,37,27.20
2011,08,21,14,38,27.30
2011,08,21,14,39,27.40
2011,08,21,14,40,27.50
2011,08,21,14,41,27.60
2011,08,21,14,42,27.70
2011,08,21,14,43,27.70
2011,08,21,14,44,27.70
2011,08,21,14,45,27.80
2011,08,21,14,46,27.90
2011,08,21,14,47,28.00
2011,08,21,14,48,28.10
2011,08,21,14,49,28.10
2011,08,21,14,50,28.10
2011,08,21,14,51,28.10
2011,08,21,14,52,28.10
2011,08,21,14,53,28.10
2011,08,21,14,54,28.10
2011,08,21,14,55,28.10
2011,08,21,14,56,28.10
2011,08,21,14,57,28.10
2011,08,21,14,58,28.10
2011,08,21,14,59,28.10
2011,08,21,15,00,28.00
2011,08,21,15,01,27.90
2011,08,21,15,02,27.90
2011,08,21,15,03,28.00
2011,08,21,15,04,28.00
2011,08,21,15,05,27.90
2011,08,21,15,06,27.90
2011,08,21,15,07,27.90
2011,08,21,15,08,27.90
2011,08,21,15,09,27.90
2011,08,21,15,10,27.90
2011,08,21,15,11,27.90
2011,08,21,15,12,28.00
2011,08,21,15,13,27.90
2011,08,21,15,14,27.70
2011,08,21,15,15,27.50
2011,08,21,15,16,27.30
2011,08,21,15,17,27.10
2011,08,21,15,18,26.90
2011,08,21,15,19,26.80
2011,08,21,15,20,26.70
2011,08,21,15,21,26.60
2011,08,21,15,22,26.50
2011,08,21,15,23,26.40
2011,08,21,15,24,26.40
2011,08,21,15,25,26.30
2011,08,21,15,26,26.30
2011,08,21,15,27,26.30
2011,08,21,15,28,26.40
2011,08,21,15,29,26.50
2011,08,21,15,30,26.60
2011,08,21,15,31,26.70
2011,08,21,15,32,26.70
2011,08,21,15,33,26.60
2011,08,21,15,34,26.50
2011,08,21,15,35,26.40
2011,08,21,15,36,26.30
2011,08,21,15,37,26.20
2011,08,21,15,38,26.10
2011,08,21,15,39,26.10
2011,08,21,15,40,26.00
2011,08,21,15,41,26.00
2011,08,21,15,42,25.80
2011,08,21,15,43,25.80
2011,08,21,15,44,25.80
2011,08,21,15,45,25.80
2011,08,21,15,46,25.80
2011,08,21,15,47,25.80
2011,08,21,15,48,25.90
2011,08,21,15,49,25.90
2011,08,21,15,50,26.00
2011,08,21,15,51,26.00
2011,08,21,15,52,25.90
2011,08,21,15,53,25.90
2011,08,21,15,54,25.80
2011,08,21,15,55,25.80
2011,08,21,15,56,25.70
2011,08,21,15,57,25.60
2011,08,21,15,58,25.50
2011,08,21,15,59,25.40
2011,08,21,16,00,25.20
2011,08,21,16,01,25.10
2011,08,21,16,02,24.90
2011,08,21,16,03,24.80
2011,08,21,16,04,24.60
2011,08,21,16,05,24.50
2011,08,21,16,06,24.30
2011,08,21,16,07,24.20
2011,08,21,16,08,24.10
2011,08,21,16,09,23.90
2011,08,21,16,10,23.70
2011,08,21,16,11,23.50
2011,08,21,16,12,23.30
2011,08,21,16,13,23.10
2011,08,21,16,14,23.00
2011,08,21,16,15,22.90
2011,08,21,16,16,22.70
2011,08,21,16,17,22.60
2011,08,21,16,18,22.50
2011,08,21,16,19,22.30
2011,08,21,16,20,22.30
2011,08,21,16,21,22.20
2011,08,21,16,22,22.10
2011,08,21,16,23,22.10
2011,08,21,16,24,22.00
2011,08,21,16,25,21.90
2011,08,21,16,26,21.90
2011,08,21,16,27,21.80
2011,08,21,16,28,21.70
2011,08,21,16,29,21.70
2011,08,21,16,30,21.70
2011,08,21,16,31,21.70
2011,08,21,16,32,21.60
2011,08,21,16,33,21.60
2011,08,21,16,34,21.60
2011,08,21,16,35,21.50
2011,08,21,16,36,21.40
2011,08,21,16,37,21.40
2011,08,21,16,38,21.40
2011,08,21,16,39,21.40
2011,08,21,16,40,21.40
2011,08,21,16,41,21.40
2011,08,21,16,42,21.40
2011,08,21,16,43,21.40
2011,08,21,16,44,21.40
2011,08,21,16,45,21.30
2011,08,21,16,46,21.30
2011,08,21,16,47,21.20
2011,08,21,16,48,21.30
2011,08,21,16,49,21.30
2011,08,21,16,50,21.30
2011,08,21,16,51,21.40
2011,08,21,16,52,21.40
2011,08,21,16,53,21.40
2011,08,21,16,54,21.50
2011,08,21,16,55,21.70
2011,08,21,16,56,21.80
2011,08,21,16,57,22.00
2011,08,21,16,58,22.10
2011,08,21,16,59,22.20
2011,08,21,17,00,22.30
2011,08,21,17,01,22.30
2011,08,21,17,02,22.30
2011,08,21,17,03,22.30
2011,08,21,17,04,22.40
2011,08,21,17,05,22.40
2011,08,21,17,06,22.60
2011,08,21,17,07,22.70
2011,08,21,17,08,22.80
2011,08,21,17,09,22.90
2011,08,21,17,10,22.90
2011,08,21,17,11,23.00
2011,08,21,17,12,23.10
2011,08,21,17,13,23.20
2011,08,21,17,14,23.20
2011,08,21,17,15,23.20
2011,08,21,17,16,23.20
2011,08,21,17,17,23.20
2011,08,21,17,18,23.20
2011,08,21,17,19,23.20